Regional Weather Roundup
Issued by NWS Grand Forks, ND

Home | Current Version | Previous Version | Graphics & Text | Print | Product List | Glossary On
Versions: 1 2 3 4 5 6 7 8 9 10 11 12 13 14 15 16 17 18 19 20 21 22 23 24 25 26 27 28 29 30 31 32 33 34 35 36 37 38 39 40 41 42 43 44 45 46 47 48 49 50
000
ASUS43 KFGF 220410
RWRFGF
PRAIRIE TO PINES  WEATHER ROUNDUP
NATIONAL WEATHER SERVICE EASTERN NORTH DAKOTA/GRAND FORKS ND
1000 PM CST TUE FEB 21 2017

 **SATELLITE DATA USED TO AUGMENT SKY COVER AT AUTOMATED STATIONS**
 *****  WEATHER ACROSS EASTERN NORTH DAKOTA  *****

CITY           SKY/WX    TMP DP  RH WIND       PRES   REMARKS
GRAND FORKS    CLOUDY    33  30  88 CALM      29.69S FOG
GRAND FRKS AFB CLOUDY    32  32 100 CALM      29.68F FOG
DEVILS LAKE    MOCLDY    34  32  92 CALM      29.66S
FARGO          MOCLDY    37  36  96 W6        29.71R
WAHPETON ARPT    N/A     37  34  87 N7        29.69R
$$

 ***** WEATHER ACROSS CENTRAL AND WESTERN NORTH DAKOTA  *****

CITY           SKY/WX    TMP DP  RH WIND       PRES   REMARKS
BISMARCK       FAIR      38  35  89 NW3       29.68F
MINOT          CLOUDY    33  31  92 W6        29.69R
JAMESTOWN      CLOUDY    38  35  89 S6        29.68S
MINOT AFB      FAIR      32  32 100 W7        29.69R FOG
GARRISON         N/A     37  35  92 W3        29.67R
WILLISTON      CLOUDY    35  32  88 N9        29.71R FOG
DICKINSON      FAIR      36  33  89 NE6       29.63S
HETTINGER      FAIR      35  34  96 CALM      29.66F
$$

 *****  OTHER AIRPORT OBSERVATIONS IN OUR AREA  *****

CITY           SKY/WX    TMP DP  RH WIND       PRES   REMARKS
WALHALLA       NOT AVBL
GRAFTON AIRPOR CLOUDY    30  32 100 N3        29.70F FOG
VALLEY CITY AR FAIR      36  36 100 SW3       29.71R
CANDO          NOT AVBL
CAVALIER APRT  FOG       32  32 100 NW6       29.69F VSB<1/4
GWINNER        FAIR      43  39  87 N10       29.68F
SHEYENNE NWR     N/A     42  37  83 NE6       29.95S
ROLLA          FOG       30  30 100 NW5       29.65F VSB 1/4
 ***** THE ABOVE OBSERVATIONS ARE NON NWS ARE NOT QUALITY
       CONTROLLED AND MAY MIS-REPORT RAIN FOR SNOW...
$$

  *****  WEATHER ACROSS NORTHERN MINNESOTA  *****

CITY           SKY/WX    TMP DP  RH WIND       PRES   REMARKS
FLAG ISLAND    CLOUDY    34  30  86 N6        29.69S
WARROAD        FAIR      32  28  86 CALM      29.70S
ROSEAU         FAIR      34  28  80 CALM      29.69F
HALLOCK        FAIR      32  30  93 CALM      29.68F FOG
THF RVR FALLS  FAIR      33  32  96 N3        29.68F FOG
BAUDETTE       FAIR      32  30  92 W5        29.67S
WASKISH        MOCLDY    36  36 100 W7        29.69R
CROOKSTON      MOCLDY    32  32 100 CALM      29.69F FOG
GREENBUSH NDAW   N/A     30  30 100 NE3         N/A
$$
  *****  WEATHER ACROSS CENTRAL AND WEST MINNESOTA  *****

CITY           SKY/WX    TMP DP  RH WIND       PRES   REMARKS
FOSSTON        LGT RAIN  34  34 100 CALM      29.68S
BEMIDJI        DRIZZLE   38  37  95 CALM      29.65F
PARK RAPIDS    FAIR      37  33  85 CALM      29.67S
ELBOW LAKE     FAIR      37  37 100 CALM      29.69R
WADENA         FAIR      37  36  93 SW6       29.68R
DETROIT LAKES  FAIR      34  32  93 CALM      29.69R
MOORHEAD       FAIR      36  36 100 W6        29.72R
FERGUS FALLS   FAIR      39  39 100 E6        29.71F
MORRIS MN      FAIR      37  37 100 CALM      29.66F
STAPLES        FAIR      36  36 100 CALM      29.69R
$$
  *****  WEATHER ELSEWHERE ACROSS MINNESOTA  *****

CITY           SKY/WX    TMP DP  RH WIND       PRES   REMARKS
DULUTH         FAIR      37  33  85 W3        29.67R
INTRNTL FALLS  FAIR      36  32  85 N6        29.67R
ELY            FAIR      34  32  93 CALM      29.65S
CLOQUET        FAIR      43  37  81 SW6       29.68R
WHEATON        FAIR      39  37  93 CALM      29.68S
BRAINERD       FAIR      38  36  92 SE3       29.67F
HIBBING        CLOUDY    36  35  96 CALM      29.68R
ALEXANDRIA     FAIR      41  39  93 CALM      29.68F
SAINT CLOUD    FAIR      39  39 100 CALM      29.67F
MINNEAPOLIS    FAIR      52  44  74 SW7       29.70S
$$

  *****  WEATHER ACROSS SOUTH DAKOTA  *****

CITY           SKY/WX    TMP DP  RH WIND       PRES   REMARKS
SIOUX FALLS    FAIR      42  37  82 CALM      29.67F
BROOKINGS      FAIR      48  39  71 SE5       29.66F
WATERTOWN      MOCLDY    53  37  54 S8G29     29.63F
HURON          FAIR      48  40  73 E10       29.64R
SISSETON         N/A     36  36 100 CALM      29.65F
ABERDEEN       FAIR      41  35  79 N10       29.65R
MITCHELL       FAIR      51  38  60 S12       29.63F
PIERRE         FAIR      53  41  63 N15       29.66R
MOBRIDGE       FAIR      45  34  65 N14G20    29.67R
RAPID CITY     MOCLDY    46  35  65 SW3       29.75R
$$

  *****  SOME WEATHER IN NEARBY STATES *****

CITY           SKY/WX    TMP DP  RH WIND       PRES   REMARKS
GLASGOW MT     LGT SNOW  34  32  92 VRB5      29.72R FOG
GREAT FALLS MT FOG       34  34 100 E3        29.67R VSB 1/4
CHEYENNE WY    FAIR      41  16  36 SW7       29.90F
SCOTTSBLUFF NE FAIR      55  20  25 W10       29.79F
OMAHA NE       FAIR      51  37  58 S12       29.78S
DES MOINES IA  FAIR      50  34  54 S10       29.81F
DAVENPORT IA   FAIR      49  40  71 S5        29.85F
CHICAGO IL     MOCLDY    55  51  86 S6        29.86F
EAU CLAIRE WI  FAIR      48  39  71 S6        29.72F
LA CROSSE WI   FAIR      50  40  68 S9        29.77F
$$

  *****  SOME NATIONAL WEATHER *****

CITY           SKY/WX    TMP DP  RH WIND       PRES   REMARKS
LA GUARDIA NY  CLOUDY    44  32  62 SW10      30.15F
RALEIGH NC     MOCLDY    54  41  61 SE5       30.12F
ATLANTA GA     LGT RAIN  61  60  97 E6        29.95F
NEW ORLEANS LA FAIR      59  56  89 W6        29.87S
OKLAHOMA CITY  FAIR      49  37  63 SW3       29.96R
ALBUQUERQUE NM FAIR      53  29  39 SW5       30.22R
SALT LAKE CITY LGT SNOW  34  33  96 CALM      30.11R FOG
LOS ANGELES CA CLOUDY    60  57  89 W6        30.22F
BOISE ID       MOCLDY    43  29  57 W13       30.01S
SEATTLE WA     CLOUDY    43  40  89 E7        30.08R
$$

*** WEATHER ACROSS MANITOBA...SASKATCHEWAN AND ONTARIO ***
                ***ONTARIO***

CITY           SKY/WX    TMP DP  RH WIND       PRES   REMARKS
GERALDTON      MOCLDY    28  27  93 SW2       29.68S
THUNDER BAY    MOCLDY    30  30 100 N2        29.67F
SIOUX LOOKOUT  CLOUDY    34  30  86 W3        29.68S
TORONTO        CLOUDY    39  36  87 NE5       29.94S
BIG TROUT LK   FLURRIES  27  25  93 NW13      29.55R WCI  16
PICKLE LAKE    NOT AVBL
DRYDEN         CLOUDY    34  30  86 N3        29.68S
KENORA         CLOUDY    32  30  93 N2        29.69S
$$
                *** MANITOBA***

CITY           SKY/WX    TMP DP  RH WIND       PRES   REMARKS
BRANDON        FLURRIES  34  32  93 N2        29.70R
DAUPHIN        CLOUDY    32  28  86 NW3       29.74R
ISLAND LAKE    FLURRIES  28  25  86 W7        29.62R WCI  21
PILOT MOUND      N/A     28  28 100 NE8         N/A  WCI  20
THE PAS        CLOUDY    32  21  64 NW13      29.69R WCI  22
THOMPSON       FLURRIES  10   3  72 NW9G17    29.64R WCI  -2
WINNIPEG       CLOUDY    34  32  93 NE2       29.71S
LYNN LAKE      FLURRIES   7   3  85 N7        29.68R WCI  -5
CHURCHILL      LGT SNOW   5   3  92 NE24G31   29.64R VSB 3/4 WCI -17
GILLAM         CLEAR      3   0  85 W14G20    29.57R WCI -15
$$
                ***SASKATCHEWAN***

CITY           SKY/WX    TMP DP  RH WIND       PRES   REMARKS
ESTEVAN        FOG       32  32 100 NE6       29.70R VSB 1/8
KINDERSLEY     CLOUDY    28  25  86 SE5       29.76S WCI  23
LLOYDMINSTER   CLOUDY    30  28  93 W7        29.74R WCI  23
PRINCE ALBERT  CLOUDY    32  25  74 W6        29.74S
REGINA         CLOUDY    32  25  74 N9        29.75R WCI  24
YORKTON        CLOUDY    32  27  80 NW10      29.73S WCI  24
N. BATTLEFORD  CLOUDY    32  27  80 NW2       29.78R
LA RONGE       FLURRIES  25  18  74 W8        29.76R WCI  16
SASKATOON      CLOUDY    32  23  69 W3        29.78S
SWIFT CURRENT  CLOUDY    30  27  86 NE5       29.73S
$$
NOTE: THESE ARE AUTOMATED STATIONS WITH LIMITED QUALITY CONTROL
      "FAIR" INDICATES FEW OR NO CLOUDS BELOW 12,000 FEET WITH NO
      SIGNIFICANT WEATHER AND/OR OBSTRUCTIONS TO VISIBILITY.
      SKY/WX - SKY CONDITION AND SIGNIFICANT WEATHER.
      TMP - AIR TEMPERATURE.    DP   - DEWPOINT TEMPERATURE.
      RH  - RELATIVE HUMIDITY.  PRES - PRESSURE.
      HX  - HEAT INDEX.         WCI  - WIND CHILL INDEX.
$



USA.gov is the U.S. government's official web portal to all federal, state and local government web resources and services.